| time (UTC) | temp F | wind direction | speed MPH | gust MPH | rain 1hr in | rain 24hr in | rain mn in | humidity % | barometer mb |
| 20260506214736 | 57 | 156 | 5.0 | 9.0 | 0.00 | 4.00 | 4.00 | 89 | 1013.4 |
| 20260506213234 | 58 | 156 | 6.0 | 9.0 | 0.00 | 4.00 | 4.00 | 88 | 1013.3 |
| 20260506211735 | 58 | 156 | 0.0 | 3.0 | 0.00 | 4.00 | 4.00 | 88 | 1013.3 |
| 20260506210235 | 58 | 155 | 2.0 | 6.0 | 0.00 | 4.00 | 4.00 | 88 | 1013.2 |
| 20260506204736 | 58 | 156 | 1.0 | 6.0 | 0.00 | 4.18 | 4.00 | 87 | 1013.1 |
| 20260506203235 | 59 | 155 | 2.0 | 6.0 | 0.00 | 4.20 | 4.00 | 86 | 1012.9 |
| 20260506201735 | 59 | 155 | 3.0 | 6.0 | 0.00 | 4.20 | 4.00 | 85 | 1012.7 |
| 20260506200234 | 59 | 156 | 5.0 | 6.0 | 0.00 | 4.20 | 4.00 | 84 | 1012.8 |
| 20260506194736 | 60 | 156 | 3.0 | 6.0 | 0.00 | 4.22 | 4.00 | 83 | 1012.6 |
| 20260506193234 | 60 | 158 | 2.0 | 6.0 | 0.00 | 4.54 | 4.00 | 81 | 1012.6 |
| 20260506191733 | 60 | 228 | 2.0 | 6.0 | 0.00 | 4.71 | 4.00 | 83 | 1012.3 |
| 20260506190234 | 60 | 203 | 0.0 | 3.0 | 0.00 | 4.78 | 4.00 | 83 | 1012.0 |
| 20260506184734 | 60 | 235 | 2.0 | 6.0 | 0.00 | 4.78 | 4.00 | 85 | 1011.7 |
| 20260506183235 | 60 | 246 | 6.0 | 13.0 | 0.00 | 4.78 | 4.00 | 86 | 1011.6 |
| 20260506181734 | 60 | 235 | 3.0 | 6.0 | 0.00 | 4.78 | 4.00 | 84 | 1011.5 |
| 20260506180233 | 62 | 241 | 3.0 | 9.0 | 0.00 | 4.80 | 4.00 | 81 | 1011.4 |
| 20260506174735 | 63 | 236 | 2.0 | 6.0 | 0.00 | 4.80 | 4.00 | 79 | 1011.1 |
| 20260506173235 | 63 | 282 | 5.0 | 9.0 | 0.00 | 4.80 | 4.00 | 77 | 1011.1 |
| 20260506171735 | 63 | 254 | 6.0 | 13.0 | 0.00 | 4.80 | 4.00 | 77 | 1011.1 |
| 20260506170234 | 62 | 258 | 6.0 | 13.0 | 0.00 | 4.80 | 4.00 | 78 | 1011.3 |
| 20260506164734 | 62 | 257 | 6.0 | 13.0 | 0.00 | 4.80 | 4.00 | 78 | 1011.1 |
| 20260506163234 | 64 | 243 | 3.0 | 15.0 | 0.00 | 4.80 | 4.00 | 76 | 1011.1 |
| 20260506161734 | 64 | 245 | 7.0 | 15.0 | 0.00 | 4.80 | 4.00 | 75 | 1011.0 |
| 20260506160234 | 65 | 260 | 8.0 | 13.0 | 0.00 | 4.80 | 4.00 | 73 | 1011.1 |
| 20260506154733 | 65 | 276 | 8.0 | 15.0 | 0.01 | 4.80 | 4.00 | 71 | 1011.1 |
| 20260506153234 | 64 | 281 | 7.0 | 18.0 | 0.01 | 4.80 | 4.00 | 72 | 1011.2 |
| 20260506151732 | 66 | 257 | 14.0 | 24.0 | 0.01 | 4.80 | 4.00 | 71 | 1010.9 |
| 20260506150233 | 64 | 268 | 14.0 | 28.0 | 0.06 | 4.80 | 4.00 | 72 | 1011.2 |
| 20260506144733 | 62 | 287 | 14.0 | 24.0 | 0.05 | 4.78 | 3.99 | 87 | 1010.7 |
| 20260506143233 | 62 | 267 | 7.0 | 13.0 | 0.05 | 4.78 | 3.99 | 91 | 1010.7 |
| 20260506141731 | 62 | 263 | 8.0 | 15.0 | 0.05 | 4.78 | 3.99 | 88 | 1010.8 |
| 20260506140231 | 64 | 257 | 16.0 | 33.0 | 0.00 | 4.74 | 3.94 | 82 | 1010.9 |
| 20260506134731 | 66 | 268 | 15.0 | 36.0 | 0.00 | 4.74 | 3.94 | 78 | 1010.6 |
| 20260506133232 | 65 | 263 | 18.0 | 33.0 | 0.00 | 4.74 | 3.94 | 80 | 1010.8 |
| 20260506131731 | 64 | 210 | 7.0 | 13.0 | 0.00 | 4.75 | 3.94 | 83 | 1011.2 |
| 20260506130232 | 63 | 251 | 6.0 | 13.0 | 0.00 | 4.88 | 3.94 | 83 | 1011.3 |
| 20260506124730 | 63 | 252 | 8.0 | 21.0 | 0.00 | 4.90 | 3.94 | 86 | 1011.5 |
| 20260506123231 | 64 | 265 | 10.0 | 24.0 | 0.00 | 4.91 | 3.94 | 86 | 1011.2 |
| 20260506121730 | 65 | 259 | 13.0 | 24.0 | 0.00 | 4.91 | 3.94 | 84 | 1010.8 |
| 20260506120230 | 65 | 277 | 12.0 | 21.0 | 0.02 | 5.03 | 3.94 | 86 | 1010.6 |
| 20260506114730 | 64 | 263 | 6.0 | 13.0 | 0.02 | 5.14 | 3.94 | 91 | 1010.6 |
| 20260506113230 | 63 | 240 | 10.0 | 21.0 | 0.02 | 5.52 | 3.94 | 95 | 1010.5 |
| 20260506111731 | 62 | 272 | 7.0 | 18.0 | 0.02 | 5.66 | 3.94 | 94 | 1010.5 |
| 20260506110230 | 62 | 256 | 16.0 | 30.0 | 0.00 | 5.70 | 3.92 | 96 | 1010.6 |
| 20260506104730 | 61 | 246 | 18.0 | 39.0 | 0.00 | 5.85 | 3.92 | 99 | 1010.5 |
| 20260506103230 | 61 | 221 | 16.0 | 30.0 | 0.00 | 6.31 | 3.92 | 99 | 1010.6 |
| 20260506101730 | 61 | 237 | 8.0 | 18.0 | 0.00 | 6.35 | 3.92 | 99 | 1010.9 |
| 20260506100228 | 61 | 254 | 12.0 | 24.0 | 0.00 | 6.63 | 3.92 | 99 | 1010.8 |
| 20260506094730 | 61 | 239 | 8.0 | 24.0 | 0.00 | 6.91 | 3.92 | 99 | 1010.9 |
| 20260506093228 | 60 | 225 | 10.0 | 36.0 | 0.00 | 7.02 | 3.92 | 99 | 1011.1 |
| 20260506091729 | 60 | 244 | 8.0 | 21.0 | 0.00 | 7.05 | 3.92 | 99 | 1011.0 |
| 20260506090229 | 59 | 215 | 2.0 | 6.0 | 0.00 | 7.06 | 3.92 | 99 | 1010.8 |
| 20260506084729 | 58 | 166 | 0.0 | 3.0 | 0.00 | 7.15 | 3.92 | 99 | 1010.9 |
| 20260506083229 | 58 | 69 | 6.0 | 9.0 | 0.00 | 7.20 | 3.92 | 99 | 1010.7 |
| 20260506081729 | 59 | 93 | 2.0 | 9.0 | 0.00 | 7.22 | 3.92 | 99 | 1010.8 |
| 20260506080230 | 58 | 142 | 5.0 | 13.0 | 0.00 | 7.22 | 3.92 | 99 | 1010.9 |
| 20260506073228 | 58 | 199 | 7.0 | 15.0 | 0.00 | 7.29 | 3.92 | 99 | 1011.0 |
| 20260506071728 | 57 | 54 | 7.0 | 15.0 | 0.00 | 7.29 | 3.92 | 99 | 1010.7 |
| 20260506070228 | 57 | 106 | 2.0 | 6.0 | 0.01 | 7.29 | 3.92 | 99 | 1010.8 |
| 20260506061727 | 57 | 154 | 8.0 | 13.0 | 0.19 | 7.29 | 3.92 | 99 | 1010.8 |
| 20260506060228 | 57 | 156 | 8.0 | 13.0 | 0.26 | 7.29 | 3.91 | 99 | 1010.6 |
| 20260506050227 | 56 | 156 | 5.0 | 13.0 | 1.22 | 7.18 | 3.65 | 99 | 1010.8 |
| 20260506044726 | 56 | 156 | 8.0 | 18.0 | 0.77 | 6.77 | 3.20 | 99 | 1010.8 |
| 20260506043226 | 56 | 156 | 6.0 | 13.0 | 0.46 | 6.50 | 2.81 | 99 | 1010.8 |
| 20260506041727 | 56 | 156 | 17.0 | 30.0 | 0.30 | 6.44 | 2.53 | 99 | 1010.3 |
| 20260506040227 | 56 | 156 | 18.0 | 28.0 | 0.46 | 6.48 | 2.43 | 99 | 1010.7 |
| 20260506034726 | 56 | 156 | 18.0 | 30.0 | 0.85 | 6.51 | 2.43 | 99 | 1010.5 |
| 20260506033225 | 56 | 156 | 9.0 | 21.0 | 0.99 | 6.43 | 2.35 | 99 | 1011.2 |
| 20260506031727 | 56 | 156 | 14.0 | 21.0 | 0.97 | 6.31 | 2.23 | 99 | 1011.3 |
| 20260506030226 | 56 | 156 | 9.0 | 21.0 | 0.72 | 6.05 | 1.97 | 99 | 1011.4 |
| 20260506024725 | 56 | 156 | 7.0 | 15.0 | 0.33 | 5.72 | 1.58 | 99 | 1011.3 |
| 20260506023225 | 56 | 156 | 3.0 | 9.0 | 0.14 | 5.52 | 1.36 | 99 | 1011.4 |
| 20260506021726 | 56 | 156 | 9.0 | 18.0 | 0.05 | 5.43 | 1.26 | 99 | 1011.1 |
| 20260506020225 | 56 | 156 | 12.0 | 18.0 | 0.25 | 5.43 | 1.25 | 99 | 1011.3 |
| 20260506014726 | 56 | 156 | 6.0 | 15.0 | 0.37 | 5.47 | 1.25 | 99 | 1011.5 |
| 20260506013225 | 56 | 156 | 13.0 | 21.0 | 0.37 | 5.50 | 1.22 | 99 | 1011.2 |
| 20260506011725 | 56 | 156 | 7.0 | 15.0 | 0.41 | 5.55 | 1.22 | 99 | 1011.5 |
| 20260506010224 | 55 | 156 | 5.0 | 9.0 | 0.30 | 5.37 | 1.00 | 99 | 1012.1 |
| 20260506004725 | 55 | 156 | 10.0 | 15.0 | 0.28 | 5.28 | 0.89 | 99 | 1012.0 |
| 20260506003225 | 54 | 156 | 10.0 | 18.0 | 0.37 | 5.29 | 0.85 | 99 | 1012.3 |
| 20260506001725 | 55 | 156 | 5.0 | 9.0 | 0.54 | 5.27 | 0.80 | 99 | 1012.6 |
| 20260506000226 | 56 | 156 | 0.0 | 3.0 | 0.65 | 5.17 | 0.71 | 99 | 1012.5 |
| 20260505234725 | 57 | 156 | 10.0 | 18.0 | 0.60 | 5.07 | 0.60 | 99 | 1012.6 |
| 20260505233223 | 58 | 156 | 5.0 | 13.0 | 0.48 | 4.95 | 0.48 | 99 | 1012.3 |
| 20260505231724 | 59 | 156 | 10.0 | 18.0 | 0.26 | 4.72 | 0.26 | 99 | 1012.8 |
| 20260505230223 | 59 | 156 | 3.0 | 13.0 | 0.06 | 4.52 | 0.06 | 99 | 1012.6 |
| 20260505224723 | 59 | 156 | 6.0 | 13.0 | 0.00 | 4.46 | 0.00 | 99 | 1013.0 |
| 20260505223223 | 59 | 155 | 8.0 | 15.0 | 0.00 | 4.46 | 0.00 | 99 | 1013.0 |
| 20260505221723 | 60 | 155 | 0.0 | 3.0 | 0.00 | 4.46 | 0.00 | 99 | 1013.3 |
| 20260505220223 | 60 | 155 | 9.0 | 18.0 | 0.00 | 4.46 | 0.00 | 99 | 1013.3 |